HB9TJM-8 Weather Reports


Display with metric or nautical units.
time (UTC)temp
F
wind
direction
speed
MPH
gust
MPH
rain 1hr
in
rain 24hr
in
rain mn
in
humidity
%
barometer
mb
20260505083138 50 162 1.0 4.0 0.00 0.26 0.26 85 1010.8
20260505082631 49 194 2.0 3.0 0.00 0.26 0.26 84 1010.9
20260505082123 49 124 2.0 4.0 0.00 0.26 0.26 84 1011.0
20260505081615 48 24 1.0 2.0 0.00 0.26 0.26 87 1010.7
20260505081108 48 6 2.0 4.0 0.00 0.26 0.26 91 1010.5
20260505080600 48 301 0.0 2.0 0.00 0.26 0.26 92 1010.4
20260505080053 48 51 2.0 2.0 0.00 0.26 0.26 88 1010.4
20260505075545 48 346 2.0 3.0 0.00 0.26 0.26 89 1010.8
20260505075037 48 191 2.0 2.0 0.00 0.26 0.26 89 1010.8
20260505074530 48 46 0.0 2.0 0.00 0.26 0.26 88 1010.7
20260505074023 48 306 1.0 3.0 0.00 0.26 0.26 90 1010.7
20260505073515 48 106 0.0 2.0 0.00 0.26 0.26 92 1010.8
20260505073007 48 11 1.0 2.0 0.00 0.26 0.26 93 1010.7
20260505071952 48 359 1.0 2.0 0.00 0.26 0.26 93 1010.7
20260505070937 48 34 0.0 2.0 0.00 0.26 0.26 92 1010.8
20260505070430 47 26 0.0 2.0 0.00 0.26 0.26 93 1010.7
20260505065415 47 155 2.0 3.0 0.00 0.26 0.26 90 1010.6
20260505064401 47 131 0.0 2.0 0.00 0.26 0.26 96 1010.7
20260505063853 46 236 2.0 2.0 0.01 0.26 0.26 97 1010.9
20260505062838 46 108 0.0 1.0 0.02 0.26 0.26 98 1011.1
20260505062331 46 34 0.0 2.0 0.02 0.26 0.26 98 1011.1
20260505061823 46 23 1.0 3.0 0.02 0.26 0.26 98 1011.0
20260505061315 46 27 0.0 3.0 0.02 0.26 0.26 98 1011.4
20260505060808 46 70 2.0 2.0 0.03 0.26 0.26 98 1011.3
20260505060300 46 11 1.0 2.0 0.03 0.26 0.26 98 1011.6
20260505055752 46 100 3.0 4.0 0.04 0.26 0.26 98 1011.6
20260505055244 46 86 1.0 3.0 0.04 0.26 0.26 98 1011.5
20260505054737 46 111 1.0 3.0 0.05 0.26 0.26 98 1011.8
20260505054229 46 70 2.0 5.0 0.05 0.25 0.25 98 1011.4
20260505053721 46 59 3.0 5.0 0.04 0.25 0.25 98 1011.2
20260505052707 46 341 2.0 3.0 0.04 0.24 0.24 98 1011.4
20260505051652 46 113 1.0 3.0 0.05 0.24 0.24 98 1011.4
20260505050130 46 188 4.0 5.0 0.04 0.22 0.22 98 1011.7
20260505041522 46 220 2.0 4.0 0.03 0.19 0.19 97 1011.8
20260505040508 46 129 1.0 3.0 0.03 0.18 0.18 97 1011.4
20260505040000 46 96 2.0 4.0 0.04 0.18 0.18 97 1011.4
20260505034945 46 63 2.0 4.0 0.05 0.18 0.18 96 1011.3
20260505034438 47 31 2.0 3.0 0.05 0.17 0.17 96 1011.4
20260505033930 47 359 1.0 3.0 0.06 0.16 0.16 96 1011.5
20260505033422 46 248 0.0 2.0 0.06 0.16 0.16 97 1012.0
20260505032915 47 326 1.0 3.0 0.07 0.16 0.16 97 1011.9
20260505032407 47 345 2.0 3.0 0.07 0.16 0.16 97 1012.0
20260505031900 47 316 1.0 3.0 0.07 0.16 0.16 96 1011.8
20260505031351 47 273 1.0 3.0 0.08 0.15 0.15 96 1012.1
20260505030844 47 324 2.0 4.0 0.09 0.15 0.15 97 1012.0
20260505030336 47 339 2.0 3.0 0.09 0.15 0.15 97 1012.3
20260505025828 47 37 1.0 4.0 0.09 0.14 0.14 97 1012.2
20260505025321 47 62 2.0 3.0 0.09 0.13 0.13 96 1012.0
20260505024813 47 134 2.0 4.0 0.08 0.13 0.13 96 1012.0
20260505024305 47 324 2.0 4.0 0.08 0.12 0.12 96 1012.0
20260505023758 47 21 2.0 4.0 0.08 0.11 0.11 96 1012.0
20260505023250 47 310 2.0 3.0 0.07 0.10 0.10 96 1012.2
20260505022743 47 24 1.0 4.0 0.07 0.09 0.09 96 1012.0
20260505022235 47 17 2.0 3.0 0.07 0.09 0.09 96 1012.2
20260505021727 47 13 2.0 4.0 0.07 0.08 0.08 96 1012.3
20260505021220 47 24 1.0 2.0 0.07 0.08 0.08 95 1012.4
20260505020712 47 355 1.0 2.0 0.06 0.07 0.07 95 1012.7
20260505020204 47 62 0.0 2.0 0.06 0.06 0.06 95 1012.6
20260505015657 47 157 0.0 1.0 0.06 0.06 0.06 95 1012.5
20260505015149 47 297 0.0 0.0 0.05 0.05 0.05 95 1012.5
20260505014641 47 345 0.0 2.0 0.04 0.04 0.04 95 1012.8
20260505014134 47 344 0.0 2.0 0.04 0.04 0.04 94 1012.9
20260505013626 47 335 2.0 2.0 0.03 0.03 0.03 95 1012.8
20260505013118 47 326 0.0 2.0 0.03 0.03 0.03 94 1013.0
20260505012611 47 321 1.0 3.0 0.02 0.02 0.02 94 1012.8
20260505012103 47 326 0.0 2.0 0.02 0.02 0.02 94 1012.9
20260505011556 47 337 1.0 3.0 0.02 0.02 0.02 94 1012.9
20260505011049 47 331 2.0 2.0 0.01 0.01 0.01 94 1013.0
20260505010541 47 329 0.0 2.0 0.00 0.00 0.00 94 1013.0
20260505010033 47 324 0.0 2.0 0.00 0.00 0.00 94 1012.5
20260505005526 46 351 1.0 2.0 0.00 0.00 0.00 95 1012.6
20260505005018 46 336 0.0 0.0 0.00 0.00 0.00 95 1012.7
20260505004511 46 354 1.0 2.0 0.00 0.00 0.00 96 1012.9
20260505004004 46 116 0.0 1.0 0.00 0.00 0.00 97 1013.0
20260505002950 46 76 1.0 2.0 0.00 0.00 0.00 97 1012.6
20260505001432 46 34 3.0 4.0 0.00 0.00 0.00 97 1012.9
20260505000924 46 50 2.0 3.0 0.00 0.00 0.00 97 1012.7
20260504233850 46 340 2.0 2.0 0.00 0.00 0.00 97 1012.9
20260504232836 46 83 0.0 2.0 0.00 0.00 0.00 97 1013.3
20260504232329 46 71 2.0 2.0 0.00 0.00 0.00 97 1013.2
20260504231821 46 309 0.0 1.0 0.00 0.00 0.00 97 1013.3
20260504231313 46 35 2.0 2.0 0.00 0.00 0.00 97 1013.2
20260504230805 46 52 3.0 4.0 0.00 0.00 0.00 97 1013.3
20260504230258 46 65 2.0 3.0 0.00 0.00 0.00 97 1013.2
20260504225750 46 75 3.0 3.0 0.00 0.00 0.00 96 1013.2
20260504225242 46 57 3.0 4.0 0.00 0.00 0.00 96 1013.4
20260504224734 46 81 3.0 4.0 0.00 0.00 0.00 96 1013.4
20260504224227 46 99 2.0 2.0 0.00 0.00 0.00 96 1013.6
20260504223719 46 81 3.0 3.0 0.00 0.00 0.00 95 1013.3
20260504222704 48 44 0.0 3.0 0.00 0.00 0.00 86 1013.3
20260504222156 48 358 2.0 3.0 0.00 0.00 0.00 88 1013.0
20260504221649 48 354 2.0 2.0 0.00 0.00 0.00 88 1013.2
20260504221142 48 2 2.0 2.0 0.00 0.00 0.00 87 1013.5
20260504220634 48 357 2.0 2.0 0.00 0.00 0.00 88 1013.6
20260504220127 48 349 2.0 3.0 0.00 0.00 0.00 88 1013.4
20260504215620 48 6 2.0 2.0 0.00 0.27 0.27 89 1013.7
20260504215112 48 24 1.0 1.0 0.00 0.27 0.27 89 1013.7
20260504214604 48 332 2.0 3.0 0.00 0.27 0.27 88 1013.9
20260504214057 48 347 0.0 3.0 0.00 0.27 0.27 89 1013.7
20260504213550 48 343 2.0 2.0 0.00 0.27 0.27 89 1013.8
20260504213042 47 14 1.0 2.0 0.00 0.27 0.27 91 1013.6
20260504212535 47 329 3.0 4.0 0.00 0.27 0.27 89 1013.5
20260504212027 46 337 3.0 4.0 0.00 0.27 0.27 91 1013.6
20260504211520 46 340 3.0 4.0 0.00 0.27 0.27 93 1013.5
20260504211011 46 344 2.0 3.0 0.00 0.27 0.27 95 1013.9
20260504205956 46 1 2.0 2.0 0.00 0.27 0.27 96 1014.1
20260504205449 45 25 2.0 3.0 0.00 0.27 0.27 95 1014.3
20260504204941 46 27 4.0 5.0 0.00 0.27 0.27 95 1014.0
20260504204433 46 84 2.0 2.0 0.00 0.27 0.27 95 1013.9
20260504203925 46 326 2.0 2.0 0.00 0.27 0.27 94 1014.1
20260504203418 46 44 4.0 4.0 0.00 0.27 0.27 93 1014.0
20260504202910 47 24 3.0 5.0 0.00 0.27 0.27 91 1013.9
20260504202402 46 253 0.0 2.0 0.00 0.27 0.27 94 1014.2
20260504201854 46 327 2.0 3.0 0.00 0.27 0.27 94 1014.2
20260504201347 46 8 2.0 2.0 0.00 0.27 0.27 94 1014.3
20260504200840 46 325 1.0 2.0 0.00 0.27 0.27 96 1014.1
20260504200332 46 344 2.0 2.0 0.00 0.27 0.27 96 1014.3
20260504195824 46 345 2.0 2.0 0.00 0.27 0.27 97 1014.3
20260504195316 46 344 2.0 2.0 0.00 0.27 0.27 97 1014.2
20260504194809 47 332 1.0 2.0 0.00 0.27 0.27 97 1014.3
20260504194301 47 40 2.0 3.0 0.00 0.27 0.27 97 1014.1
20260504193754 47 89 2.0 3.0 0.00 0.27 0.27 97 1014.2
20260504193246 47 62 2.0 2.0 0.00 0.27 0.27 97 1014.1
20260504192738 47 79 2.0 2.0 0.00 0.27 0.27 97 1014.3
20260504192231 47 78 2.0 3.0 0.00 0.27 0.27 97 1014.3
20260504191723 47 75 1.0 2.0 0.00 0.27 0.27 97 1014.3
20260504191216 48 54 2.0 3.0 0.00 0.27 0.27 97 1014.5
20260504190708 48 53 2.0 3.0 0.00 0.27 0.27 96 1014.3
20260504185147 48 60 5.0 5.0 0.00 0.27 0.27 96 1014.7
20260504184639 48 85 2.0 3.0 0.00 0.27 0.27 96 1014.1
20260504184131 48 36 3.0 3.0 0.00 0.27 0.27 95 1014.0
20260504183623 48 94 3.0 4.0 0.00 0.27 0.27 95 1014.7
20260504183116 48 86 1.0 1.0 0.00 0.27 0.27 95 1014.5
20260504182608 48 85 2.0 2.0 0.00 0.27 0.27 95 1014.3
20260504182101 48 85 2.0 3.0 0.00 0.27 0.27 94 1014.3
20260504181553 48 118 2.0 3.0 0.00 0.27 0.27 94 1014.3
20260504181045 48 99 1.0 3.0 0.00 0.27 0.27 93 1014.6
20260504180031 48 95 3.0 3.0 0.00 0.27 0.27 92 1014.3
20260504175016 49 112 3.0 4.0 0.00 0.27 0.27 91 1014.5
20260504174508 49 96 4.0 4.0 0.00 0.27 0.27 88 1014.3
20260504174001 49 101 4.0 4.0 0.00 0.27 0.27 90 1014.5
20260504173453 49 117 3.0 3.0 0.00 0.27 0.27 89 1014.8
20260504172946 49 116 2.0 3.0 0.00 0.27 0.27 90 1014.7
20260504172438 49 148 2.0 3.0 0.00 0.27 0.27 89 1014.7
20260504171931 49 127 4.0 4.0 0.00 0.27 0.27 89 1014.5
20260504171423 49 160 3.0 5.0 0.00 0.27 0.27 89 1014.5
20260504170915 49 166 3.0 5.0 0.00 0.27 0.27 89 1014.8
20260504170408 49 139 3.0 3.0 0.00 0.27 0.27 90 1014.7
20260504160238 51 182 7.0 10.0 0.02 0.27 0.27 76 1015.2
20260504151124 49 207 3.0 16.0 0.04 0.26 0.26 78 1015.7
20260504150617 49 285 3.0 7.0 0.04 0.25 0.25 79 1015.8
20260504150109 49 274 2.0 16.0 0.03 0.25 0.25 80 1015.7
20260504140953 50 34 2.0 4.0 0.05 0.22 0.22 81 1016.1
20260504140445 50 336 4.0 9.0 0.05 0.22 0.22 82 1015.9
20260504130821 50 204 3.0 11.0 0.05 0.17 0.17 91 1016.0
20260504130314 51 180 6.0 11.0 0.04 0.17 0.17 90 1016.1
20260504120142 54 180 0.0 3.0 0.02 0.13 0.13 80 1015.7
20260504110518 53 196 3.0 5.0 0.02 0.11 0.11 78 1015.7
20260504100346 52 75 3.0 4.0 0.05 0.09 0.09 85 1015.4